• In Germany
  • List of Countries
  • For 7 days
  • Water Temperature
  • Satellite Maps
  • Weather Map
  • Weather Widgets
  • user-avatar
    Login

    Hourly Weather Wlora

    Today, 28 June, Wednesday

    Time Temperature Precipitation Wind Pressure Humidity
    00:00 +26°C° 0 mm 4 mps 758 mmHg 66%
    01:00 +26°C° 0 mm 5 mps 757 mmHg 68%
    02:00 +26°C° 0 mm 5 mps 757 mmHg 67%
    03:00 +26°C° 0 mm 5 mps 757 mmHg 67%
    04:00 +24°C° 0 mm 6 mps 757 mmHg 66%
    05:00 +27°C° 0 mm 6 mps 757 mmHg 61%
    06:00 +29°C° 0 mm 6 mps 757 mmHg 55%
    07:00 +32°C° 0 mm 6 mps 757 mmHg 49%
    08:00 +33°C° 0 mm 6 mps 757 mmHg 45%
    09:00 +34°C° 0 mm 6 mps 757 mmHg 41%
    10:00 +35°C° 0 mm 6 mps 757 mmHg 37%
    11:00 +35°C° 0 mm 6 mps 757 mmHg 37%
    12:00 +36°C° 0 mm 6 mps 757 mmHg 36%
    13:00 +36°C° 0 mm 6 mps 757 mmHg 36%
    14:00 +36°C° 0 mm 5 mps 757 mmHg 37%
    15:00 +35°C° 0 mm 5 mps 757 mmHg 38%
    16:00 +35°C° 0 mm 5 mps 757 mmHg 39%
    17:00 +33°C° 0 mm 5 mps 757 mmHg 46%
    18:00 +30°C° 0 mm 5 mps 757 mmHg 54%
    19:00 +29°C° 0 mm 5 mps 757 mmHg 61%
    20:00 +28°C° 0 mm 5 mps 757 mmHg 60%
    21:00 +28°C° 0 mm 6 mps 757 mmHg 59%
    22:00 +28°C° 0 mm 6 mps 757 mmHg 59%
    23:00 +28°C° 0 mm 6 mps 757 mmHg 58%

    Tomorrow, 29 June, Thursday

    Time Temperature Precipitation Wind Pressure Humidity
    00:00 +28°C° 0 mm 7 mps 757 mmHg 57%
    01:00 +27°C° 0 mm 7 mps 757 mmHg 56%
    02:00 +27°C° 0 mm 7 mps 757 mmHg 55%
    03:00 +27°C° 0 mm 7 mps 757 mmHg 54%
    04:00 +27°C° 0 mm 8 mps 757 mmHg 54%
    05:00 +28°C° 0 mm 8 mps 757 mmHg 50%
    06:00 +31°C° 0 mm 8 mps 757 mmHg 46%
    07:00 +33°C° 0 mm 8 mps 757 mmHg 42%
    08:00 +34°C° 0 mm 8 mps 757 mmHg 38%
    09:00 +37°C° 0 mm 8 mps 757 mmHg 33%
    10:00 +38°C° 0 mm 9 mps 758 mmHg 29%
    11:00 +39°C° 0 mm 9 mps 758 mmHg 29%
    12:00 +39°C° 0 mm 8 mps 757 mmHg 29%
    13:00 +39°C° 0 mm 8 mps 757 mmHg 29%
    14:00 +39°C° 0 mm 8 mps 757 mmHg 31%
    15:00 +38°C° 0 mm 8 mps 757 mmHg 33%
    16:00 +36°C° 0 mm 7 mps 757 mmHg 34%
    17:00 +34°C° 0 mm 7 mps 757 mmHg 42%
    18:00 +32°C° 0 mm 7 mps 757 mmHg 49%
    19:00 +29°C° 0 mm 6 mps 758 mmHg 56%
    20:00 +29°C° 0 mm 6 mps 758 mmHg 57%
    21:00 +28°C° 0 mm 6 mps 759 mmHg 58%
    22:00 +28°C° 0 mm 6 mps 759 mmHg 59%
    23:00 +28°C° 0 mm 6 mps 759 mmHg 59%

    Day after tomorrow, 30 June, Friday

    Time Temperature Precipitation Wind Pressure Humidity
    00:00 +27°C° 0 mm 6 mps 759 mmHg 59%
    01:00 +27°C° 0 mm 6 mps 759 mmHg 58%
    02:00 +27°C° 0 mm 5 mps 759 mmHg 57%
    03:00 +27°C° 0 mm 5 mps 759 mmHg 55%
    04:00 +26°C° 0 mm 4 mps 759 mmHg 54%
    05:00 +28°C° 0 mm 4 mps 760 mmHg 50%
    06:00 +30°C° 0 mm 4 mps 760 mmHg 45%
    07:00 +33°C° 0 mm 3 mps 760 mmHg 41%
    08:00 +34°C° 0 mm 4 mps 760 mmHg 37%
    09:00 +36°C° 0 mm 4 mps 760 mmHg 34%
    10:00 +38°C° 0 mm 4 mps 760 mmHg 31%
    11:00 +39°C° 0 mm 5 mps 760 mmHg 31%
    12:00 +40°C° 0 mm 5 mps 759 mmHg 30%
    13:00 +40°C° 0 mm 5 mps 759 mmHg 30%
    14:00 +40°C° 0 mm 5 mps 759 mmHg 31%
    15:00 +39°C° 0 mm 5 mps 758 mmHg 32%
    16:00 +39°C° 0 mm 5 mps 758 mmHg 33%
    17:00 +36°C° 0 mm 5 mps 758 mmHg 41%
    18:00 +33°C° 0 mm 5 mps 758 mmHg 49%
    19:00 +30°C° 0 mm 5 mps 758 mmHg 57%
    20:00 +30°C° 0 mm 6 mps 758 mmHg 55%
    21:00 +29°C° 0 mm 6 mps 758 mmHg 52%
    22:00 +29°C° 0 mm 6 mps 758 mmHg 50%
    23:00 +29°C° 0 mm 7 mps 758 mmHg 48%

    1 July, Saturday

    Time Temperature Precipitation Wind Pressure Humidity
    00:00 +29°C° 0 mm 7 mps 758 mmHg 46%
    01:00 +29°C° 0 mm 7 mps 758 mmHg 44%
    02:00 +29°C° 0 mm 7 mps 757 mmHg 42%
    03:00 +29°C° 0 mm 7 mps 757 mmHg 40%
    04:00 +29°C° 0 mm 6 mps 757 mmHg 38%
    05:00 +30°C° 0 mm 5 mps 758 mmHg 38%
    06:00 +33°C° 0 mm 4 mps 758 mmHg 37%
    07:00 +34°C° 0 mm 3 mps 758 mmHg 37%
    08:00 +35°C° 0 mm 3 mps 758 mmHg 37%
    09:00 +36°C° 0 mm 3 mps 758 mmHg 37%
    10:00 +37°C° 0 mm 3 mps 758 mmHg 37%
    11:00 +38°C° 0 mm 4 mps 758 mmHg 36%
    12:00 +38°C° 0 mm 4 mps 758 mmHg 36%
    13:00 +40°C° 0 mm 4 mps 757 mmHg 35%
    14:00 +39°C° 0 mm 5 mps 757 mmHg 39%
    15:00 +37°C° 0 mm 5 mps 757 mmHg 42%
    16:00 +36°C° 0 mm 5 mps 756 mmHg 46%
    17:00 +34°C° 0 mm 5 mps 756 mmHg 55%
    18:00 +32°C° 0 mm 4 mps 756 mmHg 65%
    19:00 +29°C° 0 mm 4 mps 756 mmHg 74%
    20:00 +28°C° 0 mm 4 mps 757 mmHg 79%
    21:00 +27°C° 0 mm 4 mps 757 mmHg 83%
    22:00 +26°C° 0 mm 4 mps 757 mmHg 88%
    23:00 +25°C° 0 mm 4 mps 757 mmHg 88%

    2 July, Sunday

    Time Temperature Precipitation Wind Pressure Humidity
    00:00 +25°C° 0 mm 4 mps 757 mmHg 88%
    01:00 +25°C° 0 mm 4 mps 756 mmHg 89%
    02:00 +25°C° 0 mm 5 mps 756 mmHg 88%
    03:00 +25°C° 0 mm 5 mps 756 mmHg 87%
    04:00 +23°C° 0 mm 5 mps 756 mmHg 86%
    05:00 +26°C° 0 mm 6 mps 756 mmHg 76%
    06:00 +27°C° 0 mm 6 mps 756 mmHg 66%
    07:00 +29°C° 0 mm 7 mps 756 mmHg 57%
    08:00 +30°C° 0 mm 7 mps 756 mmHg 53%
    09:00 +31°C° 0 mm 8 mps 756 mmHg 49%
    10:00 +32°C° 0 mm 8 mps 756 mmHg 46%
    11:00 +32°C° 0 mm 8 mps 756 mmHg 44%
    12:00 +33°C° 0 mm 8 mps 756 mmHg 42%
    13:00 +33°C° 0 mm 8 mps 756 mmHg 40%
    14:00 +32°C° 0 mm 8 mps 756 mmHg 41%
    15:00 +32°C° 0 mm 9 mps 755 mmHg 42%
    16:00 +31°C° 0 mm 9 mps 755 mmHg 44%
    17:00 +29°C° 0 mm 8 mps 756 mmHg 50%
    18:00 +27°C° 0 mm 8 mps 756 mmHg 56%
    19:00 +26°C° 0 mm 7 mps 756 mmHg 63%
    20:00 +24°C° 0.2 mm 7 mps 756 mmHg 69%
    21:00 +23°C° 0.2 mm 6 mps 757 mmHg 75%
    22:00 +21°C° 0.2 mm 6 mps 757 mmHg 82%
    23:00 +21°C° 0.1 mm 6 mps 757 mmHg 83%

    3 July, Monday

    Time Temperature Precipitation Wind Pressure Humidity
    00:00 +21°C° 0.1 mm 6 mps 757 mmHg 83%
    01:00 +21°C° 0.1 mm 6 mps 757 mmHg 84%
    02:00 +21°C° 0 mm 6 mps 757 mmHg 83%
    03:00 +20°C° 0 mm 6 mps 757 mmHg 81%
    04:00 +20°C° 0 mm 6 mps 757 mmHg 80%
    05:00 +22°C° 0 mm 6 mps 757 mmHg 70%
    06:00 +24°C° 0 mm 6 mps 757 mmHg 61%
    07:00 +26°C° 0 mm 6 mps 757 mmHg 52%
    08:00 +28°C° 0 mm 6 mps 757 mmHg 46%
    09:00 +29°C° 0 mm 7 mps 757 mmHg 40%
    10:00 +32°C° 0 mm 7 mps 758 mmHg 34%
    11:00 +32°C° 0 mm 8 mps 757 mmHg 34%
    12:00 +33°C° 0 mm 8 mps 757 mmHg 33%
    13:00 +33°C° 0 mm 9 mps 757 mmHg 33%
    14:00 +33°C° 0 mm 9 mps 757 mmHg 35%
    15:00 +32°C° 0 mm 9 mps 757 mmHg 37%
    16:00 +32°C° 0 mm 9 mps 757 mmHg 40%
    17:00 +29°C° 0 mm 9 mps 758 mmHg 46%
    18:00 +28°C° 0 mm 9 mps 758 mmHg 52%
    19:00 +26°C° 0 mm 9 mps 758 mmHg 58%
    20:00 +24°C° 0 mm 8 mps 758 mmHg 60%
    21:00 +24°C° 0 mm 7 mps 759 mmHg 61%
    22:00 +23°C° 0 mm 7 mps 759 mmHg 63%
    23:00 +23°C° 0 mm 7 mps 759 mmHg 62%
    Show more